Presure
118 131 107 116 134 145 89 128 104 81 138 155 145 108 107 90 94 149 85 88 152 153 154 98 152 137 145 135 155 115 125 115 133 96 167 93 104 102 120 97 124 142 83 83 84 97 98 124 163
144 127 122 89 93 150 142 89 128 83 142 115 134 111 92 102 93 94 95 94 107 97 96 98 169 169 141 96 151 160 140 96 93 104 97 143 138 171 180 81 78 120 87 177 126 167 162 166 136
130 124 97 88 88 117 103 144 89 138 90 78 133 96 98 91 88 109 99 91 97 97 130 158 164 149 149 101 90 110 91 94 104 104 188 102 119 89 83 85 180 163 82 112 183 130 146 128 133
119 100 95 95 93 80 112 103 144 81 88 143 96 93 143 88 142 92 133 149 153 87 152 159 103 175 111 89 96 94 96 106 165 103 83 170 160 163 170 133 176 98 160 184 161 181 132 177 178
83 100 100 122 74 96 138 139 90 143 118 130 144 137 139 96 90 106 132 143 148 144 150 151 103 141 193 152 107 98 84 90 78 79 88 86 147 169 124 180 102 156 160 166 179 108 194 197 114
83 84 110 87 98 135 126 94 97 96 93 117 136 129 123 88 88 102 113 143 147 131 147 152 147 152 134 157 156 116 133 84 108 82 81 82 108 82 172 170 133 132 179 183 130 143 208 127 132
86 83 99 135 117 119 110 139 150 117 97 129 137 96 144 82 91 148 137 102 151 145 156 150 147 176 144 89 168 163 174 75 84 75 77 77 175 150 135 127 161 193 187 164 138 124 160 142 125
109 80 107 87 139 146 145 134 134 96 99 119 143 137 128 91 131 115 138 141 139 140 143 79 88 88 87 87 89 90 92 79 85 93 125 110 155 148 175 200 135 178 179 184 140 158 135 127 103
97 94 123 83 92 93 121 145 150 114 105 139 81 126 121 135 92 131 141 80 109 144 131 77 86 108 88 145 93 94 100 102 122 169 120 157 160 157 161 162 147 156 163 160 138 120 145 118 108
101 99 138 138 107 99 102 103 88 148 113 87 131 107 132 86 90 176 169 88 149 137 137 78 90 144 108 83 84 86 130 139 104 162 130 147 152 159 154 156 163 152 184 134 135 156 151 132 169
117 129 127 106 90 84 78 87 89 90 81 86 99 133 135 133 91 132 135 135 141 141 139 82 148 78 82 82 82 91 83 100 99 136 152 157 152 149 161 161 141 144 143 162 155 164 137 144 115
152 114 130 139 100 101 73 81 76 72 77 81 98 81 80 115 126 130 80 128 131 134 117 127 96 86 75 80 88 89 95 88 102 106 145 140 159 151 143 148 156 152 117 101 151 153 153 127 123
155 152 160 171 181 114 129 126 67 84 96 92 91 111 107 139 119 125 133 76 122 86 88 80 121 91 75 89 90 96 88 96 130 143 148 154 140 134 151 162 153 154 130 150 161 126 150 154 121
153 156 153 157 134 146 151 123 136 117 99 101 105 119 102 87 96 77 88 79 94 90 91 94 91 94 79 88 89 91 101 97 90 152 147 142 132 133 147 153 147 160 138 160 139 124 152 151 154
184 152 158 154 157 152 154 133 120 118 170 110 106 95 96 72 78 82 95 107 85 93 88 76 87 112 74 87 97 99 109 140 144 139 142 106 142 120 138 130 136 160 118 156 127 134 142 154 139
179 173 153 151 158 150 142 153 155 134 124 126 114 139 111 94 97 82 119 83 93 106 129 126 100 84 98 106 133 124 141 136 137 154 141 141 129 146 148 124 131 139 127 116 140 123 125 121 121
194 187 174 165 150 150 154 160 144 151 156 160 165 115 157 141 112 125 124 150 131 131 121 119 110 108 117 123 117 118 131 140 130 130 139 148 144 146 136 142 142 149 137 132 115 140 169 150 125
235 225 192 185 177 169 172 153 150 158 171 173 150 132 157 159 166 156 122 121 156 167 163 178 169 167 134 137 140 143 147 135 132 127 146 124 131 142 139 141 136 137 142 134 148 150 132 144 143
211 231 237 194 187 187 188 185 168 162 173 173 167 160 156 159 159 159 149 145 148 173 152 154 157 163 187 163 179 127 205 141 158 136 141 126 119 140 129 144 129 122 156 155 130 137 124 139 142
222 211 227 230 228 197 197 192 191 190 187 184 172 175 179 180 181 169 175 168 153 188 177 168 170 165 144 189 190 194 164 172 151 165 145 144 145 151 156 158 160 127 130 147 119 135 152 161 137
206 197 206 212 216 219 226 226 224 227 219 221 199 198 199 199 198 201 183 225 228 184 198 199 199 184 210 200 212 219 200 220 233 209 125 204 203 164 145 141 143 157 157 132 149 142 145 157 148
239 237 236 235 228 221 198 203 208 213 216 217 240 257 257 236 236 238 237 237 244 248 250 256 264 260 262 262 264 263 264 262 271 265 302 256 132 160 287 170 126 144 149 147 139 141 151 141 128
255 253 250 248 247 253 254 260 246 197 199 232 236 277 279 214 211 217 223 239 238 238 236 235 232 234 237 235 238 275 293 358 360 293 368 376 326 313 148 131 135 132 142 142 113 146 147 139 134
188 187 186 196 207 225 231 237 235 229 232 261 277 284 285 279 280 285 256 238 236 231 230 277 266 258 269 269 338 343 348 369 403 366 433 282 366 345 173 261 306 264 298 119 183 148 136 166 181
223 217 223 195 216 220 218 222 219 220 253 236 238 267 267 268 270 270 271 263 255 247 247 248 253 271 297 286 225 320 343 429 490 478 480 446 409 406 220 368 357 308 187 296 214 142 231 236 141
201 198 196 198 202 205 215 212 216 217 218 222 230 232 232 230 227 239 237 237 240 255 284 279 283 291 296 278 297 293 310 355 409 439 427 475 483 437 375 118 262 313 125 318 125 124 294 125 157
229 198 197 201 196 214 209 203 218 223 217 219 226 228 231 234 232 237 254 289 295 273 270 275 266 277 295 271 269 276 289 309 328 382 420 413 399 399 405 425 387 343 339 329 131 325 340 329 190
258 233 211 230 196 195 220 213 219 230 227 229 265 262 267 293 289 280 272 276 259 271 261 262 260 252 274 275 267 266 289 275 266 320 344 386 372 396 409 407 382 373 359 259 191 141 327 142 130
285 281 253 238 224 229 307 327 324 286 297 295 290 281 282 274 263 272 265 259 254 263 256 251 254 239 239 257 260 253 248 257 285 305 307 330 355 386 383 378 169 368 386 407 312 216 147 174 152
352 351 341 333 330 320 308 301 293 291 287 278 246 255 259 262 267 260 259 267 254 256 244 249 252 252 245 251 241 136 268 265 273 268 272 143 143 145 309 313 328 367 367 150 148 150 138 148 138
Wind_Speed
42 40 26 30 35 43 20 34 25 14 31 37 35 20 19 17 17 22 8 8 28 26 24 14 19 18 21 20 25 13 16 15 16 9 24 9 16 14 18 11 13 25 10 10 13 16 17 20 24
50 37 34 25 28 45 41 17 33 16 31 26 31 25 18 19 18 19 14 13 15 14 12 13 28 26 22 8 24 27 23 9 10 14 12 25 23 25 25 6 5 15 14 27 21 25 23 24 19
44 40 33 27 27 39 24 42 20 32 18 11 34 21 21 19 16 23 20 13 18 16 19 26 28 25 27 12 8 11 9 10 15 16 27 18 15 7 9 12 26 24 12 22 29 23 21 18 15
48 42 38 39 35 8 32 29 40 9 16 37 22 23 32 16 35 17 28 30 30 11 29 28 16 31 18 9 10 10 11 16 29 16 10 28 27 27 26 27 27 24 24 29 23 29 21 31 32
27 37 40 46 13 38 44 43 25 39 31 34 38 32 32 21 18 22 27 28 30 28 29 30 17 27 28 28 16 11 7 11 6 6 15 15 24 28 26 27 26 27 25 25 28 22 35 39 10
31 28 41 30 41 47 42 31 36 30 24 32 34 31 33 18 17 22 21 34 34 27 31 33 31 33 23 32 31 22 30 8 16 11 10 14 18 15 28 25 28 25 26 29 25 22 38 19 22
37 31 44 50 45 49 35 48 51 34 31 37 39 13 41 12 15 40 31 23 37 36 32 34 33 36 30 8 35 33 34 10 18 12 11 10 27 30 27 29 28 31 31 25 27 21 22 27 14
53 28 45 34 59 59 59 47 41 27 21 37 47 40 36 21 33 31 37 37 36 35 36 2 7 7 8 11 13 17 21 19 25 29 27 30 33 34 31 33 29 30 31 31 31 26 29 22 26
53 53 53 22 39 35 44 51 53 47 27 49 13 39 37 37 22 37 42 7 23 39 30 7 9 20 10 35 15 19 22 24 29 36 31 35 35 35 33 33 30 30 31 32 31 27 28 23 26
61 59 67 63 35 43 38 33 31 54 43 23 48 36 44 18 20 49 49 17 44 39 39 11 16 42 22 13 17 19 34 36 25 39 33 37 38 38 36 34 35 33 36 30 31 32 36 31 33
71 70 68 61 46 34 23 30 32 34 19 23 32 51 47 44 26 43 43 42 44 45 43 16 47 15 15 17 21 26 25 24 27 33 40 40 40 38 40 39 35 34 35 39 38 37 34 38 27
79 67 69 68 56 56 24 28 22 20 16 21 35 24 22 41 45 47 16 42 45 44 36 40 28 23 15 23 30 31 31 31 31 34 42 40 45 42 39 40 43 41 29 31 39 41 42 34 32
79 75 74 73 71 62 62 55 19 36 39 42 39 47 45 53 48 50 52 19 43 25 27 23 40 28 19 30 33 35 36 36 45 43 45 47 39 38 44 45 44 43 33 42 46 33 45 47 34
80 79 76 75 69 70 69 65 62 62 51 53 53 51 47 35 35 20 32 26 35 34 34 35 32 35 31 34 35 35 40 43 39 54 49 45 39 38 43 46 44 48 42 50 43 38 48 48 50
88 77 78 75 75 73 73 68 65 65 68 59 57 42 37 17 26 31 43 48 31 37 32 25 35 45 26 37 42 44 43 49 50 49 51 41 48 35 42 40 42 53 40 51 37 40 49 53 48
87 84 77 74 77 75 73 72 73 69 66 66 64 67 58 40 46 34 53 34 43 50 58 54 46 38 46 49 51 50 54 50 50 59 49 49 45 53 52 41 45 46 43 42 49 38 40 38 40
92 90 85 83 76 76 76 77 73 73 73 73 76 65 71 67 61 62 61 68 61 60 57 55 52 52 54 55 53 52 54 56 51 50 52 57 53 56 49 52 52 55 49 49 44 53 64 57 47
80 89 89 85 84 82 81 77 76 77 79 78 76 71 74 75 76 74 63 61 72 76 75 79 77 75 61 61 62 62 63 58 56 54 62 47 48 53 51 52 52 51 53 51 59 59 53 56 56
79 74 77 87 85 85 83 85 83 82 84 84 82 79 77 78 79 80 74 70 71 81 73 73 73 77 84 75 80 58 88 64 74 62 65 52 49 55 48 56 51 49 65 64 50 56 49 58 59
74 77 71 71 76 89 89 88 89 87 87 88 86 86 86 88 87 83 84 82 75 90 86 81 81 78 62 84 84 85 74 75 72 73 66 66 65 67 69 70 72 51 52 57 46 54 62 67 56
74 74 72 72 74 75 74 73 79 80 85 85 96 98 99 99 98 98 91 91 96 92 97 98 96 89 104 99 103 107 97 110 113 97 52 90 89 75 65 62 61 69 64 49 61 55 57 65 59
76 72 72 73 75 75 80 74 79 81 81 84 79 81 84 89 91 89 91 93 90 90 92 89 90 93 95 97 99 103 106 108 108 112 105 111 54 66 103 74 56 60 62 62 54 59 61 57 55
71 75 72 71 72 74 73 65 69 85 86 75 77 67 69 89 90 92 93 93 94 94 94 93 95 96 100 101 102 91 93 77 79 75 86 90 100 100 59 53 59 53 59 55 52 62 60 51 56
41 43 44 45 45 44 48 47 58 63 68 65 63 63 64 66 67 68 78 81 80 80 83 73 75 79 82 86 54 58 63 62 63 72 72 74 88 88 76 86 96 85 96 50 82 56 55 72 67
46 45 46 47 46 48 51 52 62 61 56 60 58 53 54 54 56 59 61 62 62 65 69 73 76 71 55 60 39 47 47 44 37 33 38 59 73 76 64 87 85 80 70 97 79 58 87 92 58
38 39 41 44 47 48 51 52 56 56 55 56 57 55 54 53 54 57 57 59 62 66 50 52 48 35 40 38 40 42 44 40 33 28 24 22 31 41 70 51 63 72 60 78 61 63 100 62 56
48 36 37 39 37 48 41 42 48 49 49 50 50 51 53 54 55 58 57 35 25 35 37 32 35 30 30 33 31 33 39 40 37 34 25 22 19 20 27 34 51 65 67 69 63 78 78 88 72
53 44 37 41 36 40 47 44 48 50 49 50 38 40 41 25 25 31 33 28 36 28 33 28 26 27 28 32 29 30 35 33 29 35 32 21 15 18 22 28 30 34 43 54 61 62 72 59 63
50 48 43 43 45 47 23 10 6 21 17 16 17 24 25 24 28 20 27 31 32 24 22 24 26 26 29 26 26 27 28 27 31 33 33 34 30 16 10 8 47 9 16 24 42 58 54 57 54
6 6 5 5 3 3 5 7 10 12 13 15 14 20 23 24 27 29 26 22 18 17 20 19 22 23 26 25 26 34 23 27 30 29 24 42 43 44 23 26 25 16 9 54 55 55 57 57 62
Wind_Direction
221 231 225 237 231 240 227 236 222 206 241 245 250 228 214 219 237 261 181 204 274 275 274 242 266 262 259 256 264 243 254 256 273 277 268 287 295 298 297 305 300 273 336 329 318 308 304 295 282
231 217 230 228 224 239 237 217 239 210 242 228 240 240 211 210 222 245 238 237 250 240 231 250 277 269 257 217 265 268 268 244 272 282 287 276 279 269 269 332 315 285 312 269 297 272 276 275 295
221 215 231 231 232 234 230 241 223 235 222 211 245 223 232 205 220 252 246 242 248 242 263 277 275 270 260 239 228 252 234 264 274 287 274 289 292 319 325 319 265 270 299 297 267 290 282 293 296
216 219 226 225 231 188 233 238 235 204 224 242 229 228 250 208 261 238 261 265 269 220 270 274 243 277 250 241 244 253 274 273 269 278 323 268 271 274 270 273 272 302 278 272 274 270 282 273 275
234 228 226 230 202 235 230 234 239 232 237 235 242 240 244 222 224 250 256 258 264 259 267 269 238 264 268 265 254 262 255 281 279 297 313 315 273 267 279 270 299 266 271 273 276 294 268 266 291
234 236 228 245 234 227 225 233 237 244 236 232 240 239 243 214 225 249 251 263 267 260 267 266 265 269 260 266 267 263 264 270 277 293 306 313 302 319 270 270 270 283 272 271 274 275 265 290 290
230 234 227 234 225 224 223 232 235 233 247 235 243 231 244 213 228 257 253 239 261 261 259 263 264 264 265 270 268 268 274 287 298 279 290 303 264 267 275 286 269 270 270 256 272 288 266 270 281
226 228 224 236 233 236 235 227 225 230 226 230 241 237 236 226 243 245 252 252 254 260 266 304 237 241 275 300 297 291 288 296 293 287 280 280 261 267 264 272 280 262 267 264 261 261 277 286 283
227 229 226 218 234 235 229 235 239 227 230 234 223 238 237 236 241 245 252 244 248 258 255 254 280 277 300 263 287 286 277 277 276 266 275 264 259 262 263 264 271 263 258 257 261 277 270 272 278
227 229 232 230 221 234 225 226 238 239 245 246 235 240 238 245 253 259 256 258 255 255 258 267 286 267 272 297 299 296 278 276 281 266 274 265 261 263 261 268 265 261 268 268 264 260 260 273 270
227 224 225 234 233 233 222 236 237 245 220 219 251 236 236 242 246 239 243 249 248 251 253 268 261 273 287 297 294 297 292 284 285 274 266 264 267 271 263 263 272 270 268 262 263 262 273 262 282
228 229 227 229 236 237 229 229 227 239 222 222 245 224 242 240 243 246 233 246 244 247 253 252 261 266 280 296 293 295 289 288 286 281 269 276 267 268 276 272 269 271 278 282 269 265 264 285 290
228 229 232 236 241 235 233 234 230 239 240 246 244 240 238 239 245 245 247 244 250 250 254 262 258 266 282 282 286 287 285 287 275 272 274 273 276 281 274 269 269 273 278 274 266 279 271 269 278
226 229 230 232 234 233 237 234 234 239 245 248 250 243 249 233 240 244 252 245 256 258 263 265 266 268 271 273 277 278 276 277 279 271 274 275 275 276 274 273 271 269 280 267 274 270 272 272 271
234 229 232 232 234 235 237 233 235 240 249 246 251 252 250 273 257 247 256 256 248 260 256 264 263 266 278 270 278 277 276 269 267 271 270 275 270 269 276 276 276 271 267 268 275 277 277 270 279
234 233 232 233 236 236 237 240 242 242 245 246 248 246 253 246 254 262 253 253 261 259 259 263 265 263 270 271 268 271 270 270 270 268 270 270 274 272 272 268 269 270 271 267 273 270 273 273 277
236 237 235 236 235 237 239 242 242 242 244 246 249 250 252 254 254 251 252 255 253 255 260 262 264 264 266 266 270 271 270 269 271 270 271 271 268 268 268 269 268 268 268 271 275 275 272 272 276
237 237 238 239 241 242 244 242 243 246 249 251 247 248 251 252 254 255 255 256 258 259 260 264 260 260 264 267 267 267 266 273 272 271 269 267 269 269 267 267 270 271 268 270 268 269 273 271 271
235 239 243 242 243 245 247 250 246 246 250 251 250 250 250 252 253 254 255 255 257 262 259 260 261 262 264 262 262 269 274 268 264 268 268 267 265 271 265 267 265 272 265 265 274 270 284 274 274
238 238 241 243 244 248 249 251 254 254 255 256 254 255 257 258 260 256 258 258 259 266 264 265 267 267 265 271 271 271 265 266 264 267 263 265 266 264 265 266 266 269 273 268 277 274 271 272 279
236 239 242 244 246 247 250 250 255 258 259 260 260 261 262 262 262 264 263 269 270 267 268 271 274 273 276 274 277 279 273 278 277 275 270 275 264 263 269 271 271 269 267 274 272 274 275 270 274
240 245 248 253 254 253 250 250 254 256 257 257 265 267 266 260 262 264 266 267 268 268 269 272 273 272 274 276 277 275 273 273 274 274 272 275 268 270 263 265 269 271 273 273 276 275 274 271 281
241 244 249 253 257 260 262 263 265 257 259 264 266 269 268 268 268 267 266 265 266 269 272 274 276 277 276 276 276 278 279 280 277 271 270 265 265 264 267 270 271 272 273 271 282 274 277 271 271
240 242 246 249 251 257 258 258 260 263 267 274 275 275 274 273 273 273 272 274 276 277 277 285 283 280 283 284 294 291 288 287 282 276 267 265 263 264 266 262 259 257 255 275 264 263 267 267 267
243 246 248 251 255 255 255 257 258 265 272 274 277 277 277 276 276 276 278 282 282 278 280 281 283 285 288 288 287 308 315 314 299 291 280 264 257 256 263 257 257 257 259 253 260 260 258 257 266
244 248 252 255 259 263 262 264 267 270 275 277 277 278 281 281 275 283 281 279 280 282 284 285 285 296 306 297 318 315 319 344 338 312 309 298 256 256 256 269 258 256 267 254 267 272 251 276 269
249 251 253 257 261 266 266 269 274 275 273 273 277 278 280 280 279 280 280 282 279 280 281 289 286 305 321 309 309 319 325 336 359 357 335 313 301 282 269 261 253 254 252 250 267 251 252 249 257
254 254 254 261 253 258 271 268 274 276 277 278 275 277 278 278 274 276 279 274 280 279 282 286 300 294 326 329 325 325 340 334 323 8 15 1 354 299 276 266 265 263 257 258 261 263 251 262 271
259 260 261 262 265 267 270 262 252 266 266 266 261 269 271 276 277 280 266 273 274 276 284 300 307 292 294 325 329 315 308 327 353 18 18 33 42 29 17 1 268 285 262 256 257 259 266 261 262
161 158 201 239 152 214 230 235 260 271 276 289 278 296 297 291 281 275 282 272 262 280 285 310 326 314 317 322 318 272 350 347 351 345 340 272 273 272 41 43 49 40 20 261 262 262 265 262 264